This is the latest recevied weather packets stored in our database for station/object OH7GGX-14. If no packets are shown the sender has not sent any weather packets the latest 10 day(s).
| Time | Temp. | Humidity | Pressure | Rain* | Wind** | Luminosity | Snow |
|---|---|---|---|---|---|---|---|
| 1778009492 | 1.67° C | 99% | 1004.9 hPa | 0 mm | - | - | - |
| 1778008892 | 1.67° C | 99% | 1004.9 hPa | 0 mm | - | - | - |
| 1778008292 | 2.22° C | 99% | 1004.8 hPa | 0 mm | - | - | - |
| 1778007692 | 2.22° C | 99% | 1004.9 hPa | 0 mm | - | - | - |
| 1778007092 | 2.22° C | 98% | 1004.8 hPa | 0 mm | - | - | - |
| 1778006492 | 2.22° C | 97% | 1004.7 hPa | 0 mm | - | - | - |
| 1778005892 | 2.78° C | 95% | 1004.6 hPa | 0 mm | - | - | - |
| 1778005292 | 3.33° C | 94% | 1004.5 hPa | 0 mm | - | - | - |
| 1778004692 | 3.33° C | 92% | 1004.3 hPa | 0 mm | - | - | - |
| 1778004092 | 3.89° C | 92% | 1004.4 hPa | 0 mm | - | - | - |
| 1778003492 | 4.44° C | 89% | 1004.3 hPa | 0 mm | - | - | - |
| 1778002892 | 4.44° C | 87% | 1004.2 hPa | 0 mm | - | - | - |
| 1778002292 | 5° C | 84% | 1004.2 hPa | 0 mm | - | - | - |
| 1778001693 | 5.56° C | 82% | 1004.1 hPa | 0 mm | - | - | - |
| 1778001092 | 6.11° C | 79% | 1004.1 hPa | 0 mm | - | - | - |
| 1778000492 | 6.11° C | 77% | 1004.1 hPa | 0 mm | - | - | - |
| 1777999892 | 6.67° C | 76% | 1004.1 hPa | 0 mm | - | - | - |
| 1777999292 | 6.67° C | 73% | 1004.1 hPa | 0 mm | - | - | - |
| 1777998693 | 6.67° C | 72% | 1004.1 hPa | 0 mm | - | - | - |
| 1777998093 | 6.67° C | 72% | 1004 hPa | 0 mm | - | - | - |
| 1777997493 | 7.22° C | 74% | 1004 hPa | 0 mm | - | - | - |
| 1777996893 | 7.22° C | 74% | 1003.7 hPa | 0 mm | - | - | - |
| 1777996293 | 7.22° C | 75% | 1003.7 hPa | 0 mm | - | - | - |
| 1777995693 | 7.22° C | 76% | 1003.5 hPa | 0 mm | - | - | - |
| 1777995093 | 7.22° C | 78% | 1003.3 hPa | 0 mm | - | - | - |
* Rain latest hour (hover to see other rain measurements)
** Current wind speed in m/s (hover to see current wind gust speed)